Regional Weather Roundup
Issued by NWS

Home | Current Version | Previous Version | Text Only | Print | Product List | Glossary Off
Versions: 1 2 3 4 5 6 7 8 9 10 11 12 13 14 15 16 17 18 19 20 21 22 23 24 25 26 27 28 29 30 31 32 33 34 35 36 37 38 39 40 41 42 43 44 45 46 47 48 49 50

000
ASUS43 KLOT 250909
RWRIL

ILLINOIS REGIONAL WEATHER ROUNDUP
NATIONAL WEATHER SERVICE CHICAGO/ROMEOVILLE IL
400 AM CDT MON SEP 25 2017

NOTE: "FAIR" INDICATES FEW OR NO CLOUDS BELOW 12,000 FEET WITH NO
SIGNIFICANT WEATHER AND/OR OBSTRUCTIONS TO VISIBILITY.

* THESE STATIONS ARE NOT UNDER NWS QUALITY CONTROL. THEY ALSO MAY NOT
  REPORT WEATHER SUCH AS PRECIPITATION OR FOG.

ILZ001-002-007-009-015-016-024-251000-
NORTHWEST ILLINOIS

CITY           SKY/WX    TMP DP  RH WIND       PRES   REMARKS
MOLINE         CLEAR     66  60  81 CALM      29.96R
STERLING*      CLEAR     61  59  93 E3        29.98S
SAVANNA*       CLEAR     63  62  95 CALM      29.96S
$$

ILZ003-004-008-010-011-017-018-251000-
NORTH CENTRAL ILLINOIS

CITY           SKY/WX    TMP DP  RH WIND       PRES   REMARKS
ROCKFORD       CLEAR     65  60  84 S3        29.99S
FREEPORT*      CLEAR     61  58  90 CALM      30.00R
ROCHELLE*      CLEAR     64  59  86 SE5       29.99S
DE KALB*       CLEAR     64  59  83 SE6       30.01S
PERU*          CLEAR     70  58  66 S6        29.99S
$$

ILZ005-006-012>014-019>023-251000-
NORTHEAST ILLINOIS

CITY           SKY/WX    TMP DP  RH WIND       PRES   REMARKS
CHICAGO-OHARE  PTCLDY    69  57  65 S5        29.99S
CHICAGO-MIDWAY PTCLDY    74  56  53 S6        30.00S
AURORA         CLEAR     66  60  81 E3        30.00S
LANSING*       CLEAR     67  59  74 CALM      30.01S
JOLIET*        PTCLDY    67  60  79 CALM      30.00S
WAUKEGAN       CLEAR     64  64 100 CALM      29.99S
DUPAGE AIRPORT CLEAR     65  60  84 S3        30.00R
KANKAKEE*      CLEAR     65  58  80 SE3       30.01F
WHEELING       CLEAR     67  64  90 CALM      30.01R
MORRIS*        CLEAR     69  59  69 CALM      29.99S
ROMEOVILLE*    PTCLDY    66  58  76 S5        30.01R
NORTHERLY ISL    N/A     76  54  46 S9          N/A
$$

LMZ740>746-251000-
SOUTHERN LAKE MICHIGAN

STATION/POSITION SKY/WX   TEMP    WIND        PRES    VSBY  WAVE
                          AIR SEA DIR/SP/G                  HT/PER
                          (F)     (DEG/KT/KT) (MB)    (MI)  (FT/S)
SOUTHERN BUOY              73 71  140/ 10/ 12 1015.8          1
WILMETTE HARBOR            71 70  170/  4/  4   N/A           1
HARRISON CRIB              77     190/ 11/ 11   N/A
BURNHAM HARBOR             76                   N/A
CALUMET HARBOR             72     190/  3/  5 1015.3R
BURNS HARBOR               74     170/  5/ 11 1016.6S
MICHIGAN CITY              73     150/ 12/ 13   N/A
MICHIGAN CITY 6N           71 72  180/  6/ 10   N/A           1
ST. JOSEPH                 72 71  170/ 10/ 14 1016.1          1
$$

ILZ025>027-034>036-040-047-049-050-058-095>099-251000-
WEST-CENTRAL ILLINOIS

CITY           SKY/WX    TMP DP  RH WIND       PRES   REMARKS
QUINCY         CLEAR     68  63  84 S5        29.97R
GALESBURG*     CLEAR     65  59  82 SE3       29.98S
MACOMB*        PTCLDY    61  59  93 CALM      29.99S
JACKSONVILLE*  CLEAR     70  62  76 S5        29.98S
PITTSFIELD*    CLEAR     69  64  84 S3        29.98R
$$

ILZ028>032-037-038-041>044-048-051>054-059>061-251000-
CENTRAL ILLINOIS

CITY           SKY/WX    TMP DP  RH WIND       PRES   REMARKS
PONTIAC        CLEAR     64  62  96 CALM      30.00S
BLOOMINGTON    CLEAR     67  60  78 S7        30.02R
DECATUR        CLEAR     64  60  87 W5        30.00S
PEORIA         CLEAR     69  60  73 CALM      29.98R
LACON*         CLEAR     67  59  76 SE3       29.97S
LINCOLN*       CLEAR     66  61  83 CALM      29.99S
SPRINGFIELD    CLEAR     68  62  81 CALM      29.99R
TAYLORVILLE    CLEAR     65  60  84 CALM      30.00R HAZE
$$

ILZ033-039-045-046-055>057-062-063-251000-
EAST-CENTRAL ILLINOIS

CITY           SKY/WX    TMP DP  RH WIND       PRES   REMARKS
CHAMPAIGN      PTCLDY    66  57  72 SE5       30.01S
RANTOUL*       CLEAR     67  61  80 SE5       30.01S
MATTOON        CLEAR     67  61  81 S3        30.00R
PARIS*         PTCLDY    62  59  91 CALM      30.02S
$$

ILZ079-100>102-251000-
SOUTHWEST ILLINOIS

CITY           SKY/WX    TMP DP  RH WIND       PRES   REMARKS
ALTON          CLEAR     63  63  99 CALM      29.99R
BELLEVILLE     CLEAR     66  63  90 CALM      29.98R
CAHOKIA*       CLEAR     69  64  84 SW3       29.99R
SPARTA*        CLEAR     67  65  94 CALM      30.00S
$$

ILZ064>066-069>071-074>076-080>082-084>086-088>090-092>094-251000-
SOUTH-CENTRAL ILLINOIS

CITY           SKY/WX    TMP DP  RH WIND       PRES   REMARKS
CARBONDALE     CLEAR     64  64 100 CALM      29.99S
CAIRO*         CLEAR     62  62  99 CALM      29.99S
EFFINGHAM*     CLEAR     63  61  94 CALM      30.01S
MARION         CLEAR     66  64  94 CALM      30.00S
MT. VERNON       N/A     63  62  97 CALM      30.00R
CENTRALIA*     CLEAR     62  61  96 CALM      29.99R
SALEM*         CLEAR     65  62  90 CALM      29.99S
METROPOLIS*    CLEAR     64  63  97 CALM      30.00R FOG
$$

ILZ067-068-072-073-078-083-087-091-251000-
SOUTHEAST ILLINOIS

CITY           SKY/WX    TMP DP  RH WIND       PRES   REMARKS
LAWRENCEVILLE  CLEAR     67  64  90 E3        30.01S
FLORA*         CLEAR     65  62  91 CALM      30.00S
FAIRFIELD*     CLEAR     63  61  91 CALM      29.99S
HARRISBURG*    CLEAR     64  63  97 CALM      30.00S
ROBINSON*      CLEAR     60  60  99 CALM      30.01S
CARMI*         CLEAR     64  62  95 CALM      30.00R
$$

ABBREVIATIONS USED IN REMARKS
   TC - TEMPERATURE IN CELSIUS
  WCI - WIND CHILL INDEX
   HX - HEAT INDEX
  VSB - VISIBILITY
$$





USA.gov is the U.S. government's official web portal to all federal, state and local government web resources and services.